TimePST,TemperatureF,Dew PointF,Humidity,Sea Level PressureIn,VisibilityMPH,Wind Direction,Wind SpeedMPH,Gust SpeedMPH,PrecipitationIn,Events,Conditions,WindDirDegrees,DateUTC
12:53 AM,27.0,21.9,81,30.01,10.0,Calm,Calm,-,N/A,,Clear,0,2014-02-21 08:53:00
1:53 AM,25.0,21.9,88,30.02,10.0,ENE,3.5,-,N/A,,Clear,70,2014-02-21 09:53:00
2:53 AM,25.0,21.0,85,30.02,10.0,Calm,Calm,-,N/A,,Clear,0,2014-02-21 10:53:00
3:53 AM,23.0,19.0,85,30.03,10.0,Calm,Calm,-,N/A,,Scattered Clouds,0,2014-02-21 11:53:00
4:53 AM,26.1,23.0,88,30.04,10.0,SSE,6.9,-,N/A,,Partly Cloudy,150,2014-02-21 12:53:00
5:53 AM,21.9,19.9,92,30.06,10.0,ENE,3.5,-,N/A,,Clear,70,2014-02-21 13:53:00
6:53 AM,21.0,18.0,88,30.07,10.0,Calm,Calm,-,N/A,,Clear,0,2014-02-21 14:53:00
7:53 AM,25.0,21.0,85,30.10,10.0,Calm,Calm,-,N/A,,Clear,0,2014-02-21 15:53:00
8:53 AM,32.0,24.1,73,30.11,10.0,NW,5.8,-,N/A,,Clear,310,2014-02-21 16:53:00
9:53 AM,33.1,21.9,64,30.12,10.0,WNW,4.6,-,N/A,,Overcast,300,2014-02-21 17:53:00
10:53 AM,35.1,21.9,59,30.12,10.0,WNW,8.1,-,N/A,,Overcast,300,2014-02-21 18:53:00
11:53 AM,36.0,16.0,44,30.13,10.0,NW,11.5,-,N/A,,Mostly Cloudy,320,2014-02-21 19:53:00
12:53 PM,36.0,12.9,39,30.12,10.0,NNW,10.4,-,N/A,,Partly Cloudy,330,2014-02-21 20:53:00
1:53 PM,36.0,15.1,43,30.13,10.0,NW,12.7,-,N/A,,Overcast,320,2014-02-21 21:53:00
2:53 PM,36.0,15.1,43,30.14,10.0,NW,9.2,-,N/A,,Mostly Cloudy,310,2014-02-21 22:53:00
3:53 PM,34.0,12.9,42,30.15,10.0,NW,9.2,-,N/A,,Overcast,310,2014-02-21 23:53:00
4:53 PM,33.1,12.0,42,30.15,10.0,NW,9.2,-,N/A,,Mostly Cloudy,320,2014-02-22 00:53:00
5:53 PM,30.0,12.9,49,30.17,10.0,NW,5.8,-,N/A,,Scattered Clouds,310,2014-02-22 01:53:00
6:53 PM,28.9,14.0,54,30.17,10.0,West,4.6,-,N/A,,Clear,270,2014-02-22 02:53:00
7:53 PM,28.0,12.0,51,30.17,10.0,WNW,6.9,-,N/A,,Clear,300,2014-02-22 03:53:00
8:53 PM,23.0,14.0,68,30.17,10.0,Calm,Calm,-,N/A,,Clear,0,2014-02-22 04:53:00
9:53 PM,21.9,14.0,72,30.17,10.0,NW,5.8,-,N/A,,Clear,320,2014-02-22 05:53:00
10:53 PM,23.0,14.0,68,30.17,10.0,SE,4.6,-,N/A,,Clear,140,2014-02-22 06:53:00
11:53 PM,21.0,12.9,71,30.17,10.0,Calm,Calm,-,N/A,,Clear,0,2014-02-22 07:53:00